x

8454049 - Quonset Point, Ri (qptr1) Weather Station

7:18 - Tue 31st Mar 2015 All times are EDT. -4 hours from GMT.

  • Wind
    9mph, 16mph gusts
  • Sea Temp 37°f
  • Luft Temp 38°f
  • Sea Pressure 1008.4mb
  • 8454049 - Quonset Point, Ri
  • 8454049 - Quonset Point, Ri

More Historic Weather Station data

Upgrade to MSW Pro to gain access to the past 30 days of data for over 8000 Wavebouys and Weather Stations around the globe.

Join Pro

Comparision Forecast

View Surf forecast
   
Di 03/31 7:18 9 16 mph 1008.4mb 37f 38f
7:12 11 16 mph 1008.3mb 37f 38f
7:06 11 15 mph 1008.2mb 37f 38f
7:00 10 15 mph 1008.2mb 37f 38f
6:54 11 20 mph 1008.2mb 37f 38f
6:48 14 18 mph 1008.1mb 37f 38f
6:42 14 22 mph 1008mb 37f 38f
6:36 15 20 mph 1007.9mb 37f 38f
6:30 11 17 mph 1007.8mb 37f 37f
6:24 14 18 mph 1007.8mb 37f 37f
6:18 13 15 mph 1007.7mb 37f 37f
6:12 13 17 mph 1007.7mb 37f 37f
6:06 10 18 mph 1007.6mb 37f 37f
6:00 14 16 mph 1007.4mb 37f 37f
5:54 14 16 mph 1007.4mb 37f 36f
5:48 14 15 mph 1007.3mb 37f 36f
5:42 13 15 mph 1007.3mb 37f 36f
5:36 14 15 mph 1007.3mb 37f 36f
5:30 13 15 mph 1007.2mb 37f 36f
5:24 13 15 mph 1007.2mb 37f 36f
5:18 11 13 mph 1007.2mb 37f 36f
5:12 10 13 mph 1007.3mb 37f 37f
5:06 11 13 mph 1007.3mb 37f 37f
5:00 10 13 mph 1007.2mb 37f 37f
4:54 10 13 mph 1007.2mb 37f 37f
4:48 9 14 mph 1007.2mb 37f 37f
4:42 11 14 mph 1007.1mb 37f 37f
4:36 13 14 mph 1007mb 37f 37f
4:30 11 14 mph 1007mb 37f 37f
4:24 11 13 mph 1007.1mb 37f 37f
4:18 10 11 mph 1007.2mb 37f 37f
4:12 10 15 mph 1007.2mb 37f 38f
4:06 10 13 mph 1007.2mb 37f 38f
4:00 9 11 mph 1007.2mb 37f 37f
3:54 10 11 mph 1007.2mb 37f 38f
3:48 9 11 mph 1007.2mb 37f 38f
3:42 9 10 mph 1007.1mb 37f 38f
3:36 9 11 mph 1007.1mb 37f 38f
3:30 9 11 mph 1007.1mb 37f 38f
3:24 9 13 mph 1007.2mb 37f 38f
3:18 10 13 mph 1007.2mb 37f 38f
3:12 9 13 mph 1007.2mb 37f 38f
3:06 10 13 mph 1007.2mb 37f 38f
3:00 13 15 mph 1007.2mb 37f 38f
2:54 11 15 mph 1007.2mb 37f 38f
2:48 11 14 mph 1007.2mb 37f 38f
2:42 10 11 mph 1007.2mb 37f 38f
2:36 9 11 mph 1007.2mb 37f 38f
2:30 9 10 mph 1007.2mb 37f 38f
2:24 9 11 mph 1007.3mb 37f 38f
2:18 9 10 mph 1007.4mb 37f 38f
2:12 8 11 mph 1007.4mb 37f 38f
2:06 7 9 mph 1007.5mb 37f 38f
2:00 7 8 mph 1007.6mb 37f 37f
1:54 7 9 mph 1007.6mb 37f 38f
1:48 8 9 mph 1007.6mb 37f 38f
1:42 8 9 mph 1007.5mb 37f 38f
1:36 7
mph
1007.6mb 37f 38f
1:30 6 7 mph 1007.6mb 37f 38f
1:24 7
mph
1007.6mb 37f 38f
1:18 7 8 mph 1007.6mb 37f 38f
1:12 8
mph
1007.6mb 37f 38f
1:06 6 7 mph 1007.6mb 37f 38f
1:00 6 7 mph 1007.7mb 37f 38f
12:54 6 7 mph 1007.8mb 37f 38f
12:48 6 8 mph 1007.8mb 37f 38f
12:42 6 9 mph 1007.8mb 37f 39f
12:36 6 7 mph 1007.9mb 37f 39f
12:30 7 8 mph 1007.9mb 37f 38f
12:24 6
mph
1008.1mb 38f 37f
12:18 5 6 mph 1008mb 38f 37f
12:12 6
mph
1008.1mb 38f 37f
12:06 5 6 mph 1008.1mb 38f 37f
12:00 5 7 mph 1008mb 38f 37f
Mo 03/30 11:54 7 9 mph 1008mb 38f 37f
11:48 7 9 mph 1007.9mb 38f 37f
11:42 8 9 mph 1007.9mb 38f 37f
11:36 8 9 mph 1007.9mb 38f 37f
11:30 7 9 mph 1008mb 38f 37f
11:24 8 9 mph 1008mb 38f 37f
11:18 6 7 mph 1008.2mb 38f 37f
11:12 7
mph
1008.3mb 38f 37f
11:06 7 8 mph 1008.3mb 38f 37f
11:00 7 8 mph 1008.3mb 38f 37f
10:54 6 7 mph 1008.3mb 38f 37f
10:48 6
mph
1008.4mb 38f 37f
10:42 6
mph
1008.5mb 38f 37f
10:36 5 6 mph 1008.5mb 38f 37f
10:30 5
mph
1008.5mb 38f 37f
10:24 3 5 mph 1008.4mb 38f 37f
10:18 3
mph
1008.5mb 38f 37f
10:12 3 5 mph 1008.4mb 38f 37f
10:06 3 5 mph 1008.4mb 38f 37f
10:00 5
mph
1008.3mb 38f 37f
9:54 5
mph
1008.3mb 38f 37f
9:48 5
mph
1008.3mb 38f 38f
9:42 5
mph
1008.2mb 38f 38f
9:36 5 6 mph 1008.2mb 38f 38f
9:30 6
mph
1008.2mb 38f 38f
9:24 5 6 mph 1008.2mb 38f 38f
9:18 6
mph
1008.2mb 38f 38f
9:12 6
mph
1008.2mb 38f 38f
9:06 6
mph
1008.2mb 38f 39f
9:00 6
mph
1008.2mb 38f 39f
8:54 6 7 mph 1008.2mb 38f 39f
8:48 7
mph
1008.1mb 38f 39f
8:42 7 8 mph 1008.1mb 38f 39f
8:36 7 8 mph 1008mb 38f 39f
8:30 6 8 mph 1007.9mb 38f 39f
8:24 7 9 mph 1007.8mb 38f 39f
8:18 9 10 mph 1007.8mb 38f 39f
8:12 8 10 mph 1007.7mb 38f 39f
8:06 9 10 mph 1007.6mb 38f 39f
8:00 9 10 mph 1007.5mb 38f 39f
7:54 10
mph
1007.4mb 38f 39f
7:48 9
mph
1007.2mb 38f 40f
7:42 8
mph
1007.2mb 38f 40f
7:36 7
mph
1007.2mb 38f 40f
7:30 9 10 mph 1007.1mb 38f 42f
7:24 9
mph
1007.1mb 38f 43f
7:18 9
mph
1007.1mb 38f 43f
7:12 9 10 mph 1007.1mb 38f 43f
7:06 9 10 mph 1007.1mb 38f 43f
7:00 9
mph
1007.1mb 38f 43f
6:54 8 10 mph 1007mb 38f 43f
6:48 9 14 mph 1007mb 38f 43f
6:42 14 15 mph 1007mb 38f 44f
6:36 13
mph
1006.9mb 38f 44f
6:30 9 11 mph 1006.8mb 38f 43f
6:24 11 13 mph 1006.8mb 38f 44f
6:18 10 13 mph 1006.8mb 38f 44f
6:12 13 14 mph 1006.7mb 38f 44f
6:06 11 13 mph 1006.6mb 38f 44f
6:00 10 14 mph 1006.6mb 38f 44f
5:54 10 11 mph 1006.5mb 38f 43f
5:48 11 13 mph 1006.5mb 38f 43f
5:42 10 11 mph 1006.5mb 38f 43f
5:36 9 10 mph 1006.4mb 38f 43f
5:30 10 11 mph 1006.3mb 38f 44f
5:24 8 10 mph 1006.3mb 38f 44f
5:18 9 11 mph 1006.3mb 38f 44f
5:12 9 11 mph 1006.4mb 38f 43f
5:06 11 14 mph 1006.4mb 38f 44f
5:00 9 10 mph 1006.4mb 38f 43f
4:54 9 10 mph 1006.5mb 38f 44f
4:48 10 11 mph 1006.5mb 38f 44f
4:42 9 14 mph 1006.6mb 38f 43f
4:36 13 14 mph 1006.8mb 38f 43f
4:30 10 13 mph 1006.8mb 38f 43f
4:24 11
mph
1006.9mb 38f 42f
4:18 10 15 mph 1006.9mb 38f 42f
4:12 11 15 mph 1007mb 38f 42f
4:06 10 15 mph 1007.1mb 38f 42f
4:00 10 15 mph 1007.1mb 38f 41f
3:54 10 16 mph 1007.2mb 38f 41f
3:48 16 20 mph 1007.3mb 38f 41f
3:42 15 20 mph 1007.3mb 38f 40f
3:36 13 15 mph 1007.4mb 38f 40f
3:30 13 15 mph 1007.5mb 38f 40f
3:24 13 17 mph 1007.6mb 38f 40f
3:18 11 21 mph 1007.6mb 38f 40f
3:12 16 20 mph 1007.4mb 38f 40f
3:06 15 17 mph 1007.5mb 38f 39f
3:00 16 21 mph 1007.5mb 38f 39f
2:54 15 18 mph 1007.6mb 38f 39f
2:48 15 21 mph 1007.7mb 38f 39f
2:42 20 23 mph 1007.6mb 38f 39f
2:36 20 22 mph 1007.6mb 38f 39f
2:30 16 18 mph 1007.8mb 38f 39f
2:24 17 24 mph 1007.8mb 38f 40f
2:18 17 20 mph 1007.7mb 38f 40f
2:12 15 20 mph 1007.8mb 38f 40f
2:06 17 22 mph 1007.8mb 38f 40f
2:00 18 20 mph 1007.9mb 38f 40f
1:54 18 22 mph 1007.9mb 38f 40f
1:48 20 24 mph 1007.9mb 38f 40f
1:42 21 23 mph 1008.1mb 38f 40f
1:36 18 25 mph 1008.2mb 38f 40f
1:30 17 24 mph 1008.4mb 38f 40f
1:24 22 26 mph 1008.5mb 38f 40f
1:18 16 20 mph 1008.7mb 38f 40f
1:12 16 18 mph 1008.8mb 38f 40f
1:06 15 18 mph 1008.8mb 38f 40f
1:00 15 18 mph 1008.9mb 38f 40f
12:54 16 21 mph 1009.1mb 38f 40f
12:48 16 20 mph 1009.4mb 38f 40f
12:42 16 20 mph 1009.5mb 38f 40f
12:36 14 18 mph 1009.6mb 38f 40f
12:30 21 24 mph 1009.7mb 38f 40f
12:24 20 25 mph 1009.8mb 38f 40f
12:18 21 23 mph 1009.9mb 38f 40f
12:12 23 29 mph 1009.9mb 38f 40f
12:06 20 26 mph 1010mb 38f 40f
12:00 22 28 mph 1010.1mb 38f 40f
11:54 20 26 mph 1010.2mb 38f 40f
11:48 23 29 mph 1010.4mb 38f 40f
11:42 18 26 mph 1010.6mb 38f 40f
11:36 22 25 mph 1010.6mb 38f 40f
11:30 21 23 mph 1010.9mb 38f 40f
11:24 20 26 mph 1011mb 38f 40f
11:18 18 25 mph 1011mb 38f 40f
11:12 17 28 mph 1011.1mb 38f 40f
11:06 21 26 mph 1011.1mb 38f 39f
11:00 18 23 mph 1011.4mb 38f 39f
10:54 17 21 mph 1011.3mb 38f 39f
10:48 16 21 mph 1011.3mb 38f 39f
10:42 16 21 mph 1011.2mb 38f 39f
10:36 18 22 mph 1011.4mb 38f 38f
10:30 18 23 mph 1011.6mb 38f 38f
10:24 20 26 mph 1011.7mb 38f 38f
10:18 18 22 mph 1012mb 38f 38f
10:12 22 29 mph 1012.1mb 38f 38f
10:06 22 24 mph 1012mb 38f 38f
10:00 22 25 mph 1012.1mb 38f 38f
9:54 23 26 mph 1012.2mb 38f 39f
9:48 21 26 mph 1012.3mb 38f 39f
9:42 18 29 mph 1012.6mb 38f 39f
9:36 22 28 mph 1012.7mb 38f 39f
9:30 21 29 mph 1012.8mb 38f 39f
9:24 21 26 mph 1012.8mb 38f 39f
9:18 21 28 mph 1012.9mb 38f 39f
9:12 22 26 mph 1012.8mb 38f 39f
9:06 22 25 mph 1012.8mb 38f 39f
9:00 20 28 mph 1013mb 38f 39f
8:54 21 24 mph 1013mb 38f 38f
8:48 20 23 mph 1013mb 38f 38f
8:42 20 26 mph 1013.1mb 38f 38f
8:36 22 28 mph 1013.1mb 38f 38f
8:30 18 23 mph 1013.2mb 38f 38f
8:24 20 23 mph 1013.3mb 38f 38f
8:18 20 23 mph 1013.5mb 38f 38f
8:12 18 24 mph 1013.5mb 38f 38f
8:06 18 21 mph 1013.6mb 38f 38f
8:00 18 21 mph 1013.7mb 38f 38f
7:54 18 22 mph 1013.8mb 38f 38f
7:48 20 23 mph 1013.9mb 38f 38f
7:42 18 22 mph 1013.9mb 38f 38f
7:36 16 22 mph 1014.2mb 38f 37f
7:30 18 22 mph 1014.3mb 38f 37f
7:24 17 21 mph 1014.4mb 38f 37f
7:18 17 21 mph 1014.6mb 38f 37f
7:12 16 20 mph 1014.6mb 38f 37f
7:06 16 21 mph 1014.6mb 38f 37f
7:00 15 18 mph 1014.6mb 38f 37f
6:54 15 17 mph 1014.7mb 38f 37f
6:48 15 17 mph 1014.7mb 38f 37f
6:42 16 17 mph 1014.9mb 38f 37f
6:36 15 20 mph 1015mb 38f 37f
6:30 15 20 mph 1015mb 38f 37f
6:24 14 18 mph 1015mb 38f 37f
6:18 14 17 mph 1015.2mb 38f 37f
6:12 14 16 mph 1015.2mb 38f 37f
6:06 14 17 mph 1015.3mb 38f 37f
6:00 15 17 mph 1015.5mb 38f 37f
5:54 15 17 mph 1015.6mb 38f 37f
5:48 15 18 mph 1015.6mb 38f 36f
5:42 14 17 mph 1015.6mb 38f 36f
5:36 16 20 mph 1015.7mb 38f 36f
5:30 15 20 mph 1015.7mb 38f 36f
5:24 15 17 mph 1015.7mb 38f 36f
5:18 15 16 mph 1015.9mb 38f 36f
5:12 13 16 mph 1016.1mb 38f 36f
5:06 13 16 mph 1016.2mb 38f 35f
5:00 14 15 mph 1016.2mb 38f 35f
4:54 13 14 mph 1016.2mb 38f 35f
4:48 13 15 mph 1016.3mb 38f 35f
4:42 11 14 mph 1016.3mb 38f 35f
4:36 11 13 mph 1016.3mb 38f 35f
4:30 10 13 mph 1016.4mb 38f 35f
4:24 10 13 mph 1016.7mb 38f 35f
4:18 10 13 mph 1016.7mb 38f 34f
4:12 11 14 mph 1016.7mb 38f 34f
4:06 11 13 mph 1016.8mb 38f 34f
4:00 11 14 mph 1016.7mb 38f 34f
3:54 10 13 mph 1016.8mb 38f 34f
3:48 10 13 mph 1017mb 38f 34f
3:42 11 14 mph 1017.3mb 38f 34f
3:36 13 14 mph 1017.3mb 38f 34f
3:30 11 14 mph 1017.4mb 38f 34f
3:24 13 14 mph 1017.3mb 38f 34f
3:18 11 13 mph 1017.3mb 38f 34f
3:12 13 14 mph 1017.4mb 38f 34f
3:06 13 15 mph 1017.5mb 38f 34f
3:00 13 15 mph 1017.5mb 38f 34f
2:54 14 15 mph 1017.8mb 38f 34f
2:48 13 15 mph 1017.8mb 38f 34f
2:42 11 14 mph 1017.9mb 38f 34f
2:36 10 13 mph 1018.2mb 38f 34f
2:30 11 14 mph 1018.4mb 39f 34f
2:24 13 16 mph 1018.5mb 39f 34f
2:18 14 15 mph 1018.5mb 39f 34f
2:12 13 15 mph 1018.5mb 39f 33f
2:06 13 14 mph 1018.5mb 39f 33f
2:00 14 15 mph 1018.6mb 39f 33f
1:54 13 15 mph 1018.6mb 39f 33f
1:48 11 14 mph 1018.6mb 39f 33f
1:42 10 13 mph 1018.6mb 39f 33f
1:36 11 14 mph 1018.7mb 39f 33f
1:30 10 13 mph 1018.6mb 39f 33f
1:24 10 13 mph 1018.7mb 39f 33f
1:18 10 14 mph 1018.7mb 39f 33f
1:12 10 13 mph 1018.8mb 39f 33f
1:06 10 13 mph 1018.9mb 39f 33f
1:00 13 15 mph 1019.2mb 39f 33f
12:54 13 15 mph 1019.3mb 39f 33f
12:48 11 14 mph 1019.4mb 39f 34f
12:42 11 13 mph 1019.5mb 39f 34f
12:36 10 13 mph 1019.4mb 39f 34f
12:30 11 14 mph 1019.5mb 39f 34f
12:24 13 16 mph 1019.6mb 39f 34f
12:18 14 15 mph 1019.6mb 39f 34f
12:12 13 14 mph 1019.6mb 39f 34f
12:06 11 13 mph 1019.4mb 39f 34f
12:00 10 13 mph 1019.3mb 39f 34f
So 03/29 11:54 11 13 mph 1019.5mb 39f 34f
11:48 10 13 mph 1019.4mb 39f 34f
11:42 10 11 mph 1019.7mb 39f 34f
11:36 9 10 mph 1019.7mb 39f 34f
11:30 9 10 mph 1019.8mb 39f 34f
11:24 9 10 mph 1019.7mb 39f 34f
11:18 7 9 mph 1019.7mb 39f 34f
11:12 7 8 mph 1019.7mb 39f 34f
11:06 7 8 mph 1019.6mb 39f 34f
11:00 7 9 mph 1019.5mb 39f 35f
10:54 8 11 mph 1019.5mb 39f 35f
10:48 10 14 mph 1019.6mb 39f 35f
10:42 11 13 mph 1019.7mb 39f 35f
10:36 11 13 mph 1019.7mb 39f 35f
10:30 10 11 mph 1019.9mb 39f 35f
10:24 10 11 mph 1020mb 39f 35f
10:18 10 11 mph 1020.1mb 39f 34f
10:12 9 11 mph 1020.2mb 39f 35f
10:06 10 13 mph 1020.3mb 39f 35f
10:00 11
mph
1020.4mb 39f 35f
9:54 10 13 mph 1020.5mb 39f 35f
9:48 11 14 mph 1020.6mb 39f 35f
9:42 10 13 mph 1020.7mb 39f 35f
9:36 11 13 mph 1020.7mb 39f 35f
9:30 11 13 mph 1020.7mb 39f 35f
9:24 13 14 mph 1020.7mb 39f 35f
9:18 11 13 mph 1020.7mb 39f 35f
9:12 11 14 mph 1020.6mb 39f 35f
9:06 11 14 mph 1020.6mb 39f 35f
9:00 13 14 mph 1020.7mb 39f 35f
8:54 13 14 mph 1020.7mb 39f 35f
8:48 13 15 mph 1020.6mb 39f 35f
8:42 13 14 mph 1020.6mb 39f 35f
8:36 13 16 mph 1020.7mb 39f 36f
8:30 13 15 mph 1020.7mb 39f 36f
8:24 11 14 mph 1020.7mb 39f 36f
8:18 11 14 mph 1020.7mb 39f 36f
8:12 11 13 mph 1020.7mb 39f 36f
8:06 10 13 mph 1020.7mb 39f 36f
8:00 11 14 mph 1020.7mb 39f 37f
7:54 11 14 mph 1020.7mb 39f 37f
7:48 11 14 mph 1020.7mb 39f 37f
7:42 11 14 mph 1020.6mb 39f 37f
7:36 11 13 mph 1020.5mb 39f 37f
7:30 10 13 mph 1020.6mb 39f 37f
7:24 8 10 mph 1020.5mb 39f 37f
7:18 9 11 mph 1020.4mb 39f 37f
7:12 9 11 mph 1020.5mb 39f 37f
7:06 11 13 mph 1020.3mb 39f 37f
7:00 13 14 mph 1020.3mb 39f 37f
6:54 13 15 mph 1020.2mb 39f 37f
6:48 14 16 mph 1020.2mb 39f 37f
6:42 14 16 mph 1020.2mb 39f 37f
6:36 11 15 mph 1020.1mb 39f 37f
6:30 14 17 mph 1020.1mb 39f 37f
6:24 15 18 mph 1020mb 39f 37f
6:18 15 17 mph 1020mb 39f 36f
6:12 16 18 mph 1020.1mb 39f 36f
6:06 17 20 mph 1020.1mb 39f 36f
6:00 18 21 mph 1020mb 39f 35f
5:54 20 21 mph 1020mb 39f 35f
5:48 20 21 mph 1020mb 39f 35f
5:42 20 22 mph 1020mb 39f 35f
5:36 20 21 mph 1020.1mb 39f 35f
5:30 18 20 mph 1020mb 39f 35f
5:24 18 20 mph 1020mb 39f 35f
5:18 17 20 mph 1019.9mb 39f 36f
5:12 18 20 mph 1019.9mb 39f 36f
5:06 15 16 mph 1019.9mb 39f 36f
5:00 14 16 mph 1020mb 39f 36f
4:54 15 17 mph 1019.9mb 39f 36f
4:48 14 16 mph 1019.9mb 39f 36f
4:42 14 16 mph 1019.9mb 39f 36f
4:36 13 15 mph 1020mb 39f 36f
4:30 14 16 mph 1020.1mb 39f 36f
4:24 13 15 mph 1020mb 39f 36f
4:18 9 14 mph 1020.1mb 39f 37f
4:12 6 7 mph 1020.2mb 39f 38f
4:06 7
mph
1020.1mb 39f 38f
4:00 6 7 mph 1020.2mb 39f 38f
3:54 6 7 mph 1020.3mb 39f 38f
3:48 7
mph
1020.4mb 39f 37f
3:42 5 8 mph 1020.6mb 38f 37f
3:36 7 8 mph 1020.7mb 38f 37f
3:30 6
mph
1020.8mb 38f 37f
3:24 6 7 mph 1020.8mb 38f 37f
3:18 6 7 mph 1020.9mb 38f 37f
3:12 7
mph
1020.9mb 38f 36f
3:06 7 8 mph 1021mb 38f 36f
3:00 6 7 mph 1021.1mb 38f 36f
2:54 5 7 mph 1021.1mb 38f 36f
2:48 1 5 mph 1021.1mb 38f 37f
2:42 5 7 mph 1021.2mb 38f 37f
2:36 7 8 mph 1021.2mb 38f 36f
2:30 6 7 mph 1021.3mb 38f 36f
2:24 6 7 mph 1021.3mb 38f 36f
2:18 6 7 mph 1021.4mb 38f 36f
2:12 5 9 mph 1021.5mb 38f 35f
2:06 6 8 mph 1021.6mb 38f 35f
2:00 8 9 mph 1021.6mb 38f 35f
1:54 8 9 mph 1021.6mb 38f 35f
1:48 8 10 mph 1021.7mb 38f 35f
1:42 9 11 mph 1021.7mb 38f 35f
1:36 10 13 mph 1021.7mb 38f 35f
1:30 10 11 mph 1021.7mb 38f 35f
1:24 10 11 mph 1021.9mb 38f 35f
1:18 7 9 mph 1022mb 38f 35f
1:12 9 10 mph 1022.1mb 38f 35f
1:06 5 7 mph 1022.3mb 38f 34f
1:00 8 10 mph 1022.3mb 38f 34f
12:54 7 9 mph 1022.3mb 38f 34f
12:48 7 9 mph 1022.4mb 38f 34f
12:42 8 10 mph 1022.3mb 38f 33f
12:36 9 11 mph 1022.4mb 38f 34f
12:30 8 10 mph 1022.4mb 38f 33f
12:24 10 13 mph 1022.5mb 38f 33f
12:18 8 11 mph 1022.5mb 38f 33f
12:12 8 11 mph 1022.5mb 38f 33f
12:06 10 11 mph 1022.4mb 38f 33f
12:00 8 11 mph 1022.4mb 38f 33f
11:54 9 11 mph 1022.5mb 38f 32f
11:48 10 11 mph 1022.6mb 38f 32f
11:42 8 14 mph 1022.7mb 38f 32f
11:36 10 13 mph 1022.7mb 38f 32f
11:30 10 13 mph 1022.9mb 38f 32f
11:24 10 13 mph 1022.8mb 38f 32f
11:18 9 16 mph 1022.8mb 38f 32f
11:12 11 15 mph 1022.9mb 38f 32f
11:06 11 15 mph 1023mb 38f 32f
11:00 10 15 mph 1022.9mb 38f 32f
10:54 13 17 mph 1022.9mb 38f 32f
10:48 14 15 mph 1022.9mb 38f 32f
10:42 14 17 mph 1023mb 38f 31f
10:36 10 16 mph 1022.9mb 38f 31f
10:30 13 17 mph 1022.9mb 38f 31f
10:24 13 16 mph 1022.9mb 38f 30f
10:18 11 16 mph 1022.8mb 38f 30f
10:12 13 16 mph 1022.8mb 38f 29f
10:06 11 15 mph 1022.8mb 38f 29f
10:00 13 18 mph 1022.8mb 38f 29f
9:54 14 17 mph 1022.8mb 38f 29f
9:48 13 18 mph 1022.8mb 38f 29f
9:42 14 20 mph 1022.7mb 38f 28f
9:36 14 17 mph 1022.6mb 38f 28f
9:30 14 21 mph 1022.6mb 38f 28f
9:24 15 18 mph 1022.5mb 38f 28f
9:18 14 17 mph 1022.5mb 38f 28f
9:12 14 18 mph 1022.4mb 38f 27f
9:06 15 18 mph 1022.3mb 38f 27f
9:00 10 14 mph 1022.3mb 38f 28f
8:54 11 17 mph 1022.3mb 38f 28f
8:48 14 17 mph 1022.3mb 38f 27f
8:42 14 18 mph 1022.1mb 38f 27f
8:36 11 17 mph 1022mb 38f 28f
8:30 10 16 mph 1022mb 38f 27f
8:24 11 15 mph 1021.9mb 38f 27f
8:18 14 16 mph 1021.8mb 38f 27f
8:12 14 18 mph 1021.8mb 38f 26f
8:06 11 15 mph 1021.8mb 38f 27f
8:00 13 20 mph 1021.7mb 38f 27f
7:54 13 17 mph 1021.6mb 38f 27f
7:48 13 17 mph 1021.5mb 38f 26f
7:42  -  mph 1021.5mb 38f 27f
7:36  -  mph 1021.3mb 38f 27f
7:30  -  mph 1021.2mb 38f 27f
7:24  -  mph 1021.1mb - -
1:42 13 18 mph 1017.4mb 38f 29f
1:36 13 15 mph 1017.5mb 38f 29f
1:30 11 16 mph 1017.4mb 38f 29f
1:24 13 18 mph 1017.4mb 38f 29f
1:18 14 20 mph 1017.3mb 38f 29f
1:12 15 20 mph 1017.2mb 38f 29f
1:06 13 16 mph 1017.1mb 38f 29f
1:00 11 18 mph 1017.1mb 38f 30f
12:54 13 17 mph 1017mb 38f 30f
12:48 16 21 mph 1016.9mb 38f 30f
12:42 14 18 mph 1016.8mb 38f 30f
12:36 14 16 mph 1016.8mb 38f 30f
12:30 10 14 mph 1016.8mb 38f 30f
12:24 10 14 mph 1016.7mb 38f 30f
12:18 10 13 mph 1016.6mb 38f 31f
12:12 10 14 mph 1016.6mb 38f 31f
12:06 11 14 mph 1016.5mb 38f 31f
12:00 11 15 mph 1016.4mb 38f 31f
Sa 03/28 11:54 14 17 mph 1016.3mb 38f 31f
11:48 9 11 mph 1016.4mb 38f 31f
11:42 9 14 mph 1016.3mb 38f 31f
11:36 10 18 mph 1016.2mb 38f 31f
11:30 15 17 mph 1016.2mb 38f 31f
11:24 11 16 mph 1016.2mb 38f 32f
11:18 8 13 mph 1016.2mb 38f 32f
11:12 11 14 mph 1016.1mb 38f 32f
11:06 10 14 mph 1016.1mb 38f 32f
11:00 8 11 mph 1016.1mb 38f 32f
10:54 7 9 mph 1016mb 38f 32f
10:48 6 8 mph 1015.9mb 38f 32f
10:42 5 8 mph 1015.8mb 38f 32f
10:36 6 10 mph 1015.7mb 38f 32f
10:30 8 11 mph 1015.7mb 38f 32f
10:24 9 13 mph 1015.6mb 38f 32f
10:18 5 6 mph 1015.5mb 38f 33f
10:12 5
mph
1015.4mb 38f 32f
10:06 3 5 mph 1015.3mb 38f 33f
10:00 3 5 mph 1015.2mb 38f 33f
9:54 5 7 mph 1015.2mb 38f 33f
9:48 6 8 mph 1015.1mb 38f 33f
9:42 6 7 mph 1015.1mb 38f 33f
9:36 6 8 mph 1015mb 38f 33f
9:30 7 8 mph 1014.9mb 38f 33f
9:24 7 9 mph 1014.8mb 38f 33f
9:18 8 9 mph 1014.7mb 38f 33f
9:12 9 10 mph 1014.6mb 38f 33f
9:06 9 11 mph 1014.4mb 38f 33f
9:00 8 11 mph 1014.4mb 38f 33f
8:54 9 11 mph 1014.3mb 38f 33f
8:48 11 14 mph 1014.2mb 38f 33f
8:42 11 14 mph 1014.1mb 38f 33f
8:36 11 14 mph 1014mb 38f 33f
8:30 10 13 mph 1013.9mb 38f 33f
8:24 9
mph
1013.7mb 38f 33f
8:18 9 10 mph 1013.5mb 38f 33f
8:12 9 11 mph 1013.3mb 38f 33f
8:06 11 13 mph 1013.1mb 38f 34f
8:00 11 15 mph 1012.9mb 38f 33f
7:54 14
mph
1012.8mb 38f 33f
7:48 13 14 mph 1012.7mb 38f 33f
7:42 10 15 mph 1012.6mb 38f 34f
7:36 10 14 mph 1012.5mb 38f 34f
7:30 9 13 mph 1012.3mb 38f 34f
7:24 9 11 mph 1012.2mb 38f 34f
7:18 10 11 mph 1012mb 38f 34f
7:12 11 15 mph 1011.8mb 38f 34f
7:06 11 14 mph 1011.7mb 38f 34f
7:00 10 14 mph 1011.6mb 38f 34f
6:54 14 15 mph 1011.4mb 38f 34f
6:48 14 16 mph 1011.3mb 38f 34f
6:42 13 15 mph 1011.1mb 38f 34f
6:36 14 17 mph 1011mb 38f 34f
6:30 13 15 mph 1010.8mb 38f 34f
6:24 11 14 mph 1010.6mb 38f 34f
6:18 13 15 mph 1010.5mb 38f 34f
6:12 13 15 mph 1010.4mb 38f 34f
6:06 13 16 mph 1010.3mb 38f 34f
6:00 14 16 mph 1010.1mb 38f 34f
5:54 11 15 mph 1010mb 38f 34f
5:48 13 15 mph 1009.9mb 38f 34f
5:42 13 15 mph 1009.7mb 38f 34f
5:36 11 16 mph 1009.6mb 38f 35f
5:30 10 14 mph 1009.5mb 38f 34f
5:24 11 14 mph 1009.4mb 38f 34f
5:18 11 14 mph 1009.3mb 38f 34f
5:12 13 15 mph 1009.2mb 38f 34f
5:06 14 16 mph 1009mb 38f 34f
5:00 14 18 mph 1008.9mb 38f 34f
4:54 15 22 mph 1008.7mb 38f 34f
4:48 18 21 mph 1008.6mb 38f 34f
4:42 15 18 mph 1008.5mb 38f 35f
4:36 14 18 mph 1008.4mb 38f 35f
4:30 13 15 mph 1008.4mb 38f 35f
4:24 11 16 mph 1008.3mb 38f 35f
4:18 14 16 mph 1008.2mb 38f 35f
4:12 13 15 mph 1008.1mb 38f 35f
4:06 14 16 mph 1008mb 38f 35f
4:00 14 21 mph 1007.9mb 38f 35f
3:54 16 20 mph 1007.8mb 38f 34f
3:48 15 18 mph 1007.7mb 38f 35f
3:42 14 18 mph 1007.5mb 38f 35f
3:36 14 18 mph 1007.5mb 38f 34f
3:30 14 20 mph 1007.4mb 38f 34f
3:24 13 17 mph 1007.3mb 38f 34f
3:18 14 17 mph 1007.2mb 38f 35f
3:12 14 20 mph 1007mb 38f 35f
3:06 15 21 mph 1006.9mb 38f 35f
3:00 13 22 mph 1006.8mb 38f 35f
2:54 18 23 mph 1006.8mb 38f 35f
2:48 18 23 mph 1006.7mb 38f 35f
2:42 18 21 mph 1006.7mb 38f 35f
2:36 17 21 mph 1006.7mb 38f 35f
2:30 17 22 mph 1006.8mb 38f 34f
2:24 14 17 mph 1006.7mb 38f 34f
2:18 15 18 mph 1006.7mb 38f 35f
2:12 17 23 mph 1006.7mb 38f 35f
2:06 20 23 mph 1006.7mb 38f 35f
2:00 20 25 mph 1006.6mb 38f 35f
1:54 18 23 mph 1006.5mb 38f 35f
1:48 18 23 mph 1006.5mb 38f 35f
1:42 20 26 mph 1006.5mb 38f 35f
1:36 21 26 mph 1006.4mb 38f 34f
1:30 20 24 mph 1006.5mb 38f 35f
1:24 21 25 mph 1006.5mb 38f 34f
1:18 20 24 mph 1006.5mb 38f 35f
1:12 20 24 mph 1006.5mb 38f 35f
1:06 20 24 mph 1006.5mb 38f 35f
1:00 21 26 mph 1006.5mb 38f 35f
12:54 22 29 mph 1006.5mb 38f 35f
12:48 22 26 mph 1006.5mb 38f 35f
12:42 22 25 mph 1006.4mb 38f 35f
12:36 21 24 mph 1006.5mb 38f 35f
12:30 18 25 mph 1006.5mb 38f 35f
12:24 20 28 mph 1006.5mb 38f 35f
12:18 16 20 mph 1006.5mb 38f 35f
12:12 15 20 mph 1006.6mb 38f 35f
12:06 15 22 mph 1006.7mb 38f 35f
12:00 18 23 mph 1006.6mb 38f 35f
11:54 16 21 mph 1006.5mb 38f 35f
11:48 16 21 mph 1006.5mb 38f 35f
11:42 14 21 mph 1006.7mb 38f 35f
11:36 14 16 mph 1006.7mb 38f 35f
11:30 15 20 mph 1006.6mb 38f 35f
11:24 17 20 mph 1006.6mb 38f 35f
11:18 16 22 mph 1006.5mb 38f 35f
11:12 15 21 mph 1006.6mb 38f 35f
11:06 16 18 mph 1006.7mb 38f 35f
11:00 15 21 mph 1006.8mb 38f 35f
10:54 16 22 mph 1006.8mb 38f 35f
10:48 20 24 mph 1006.9mb 38f 35f
10:42 16 21 mph 1006.9mb 38f 35f
10:36 16 20 mph 1006.8mb 38f 36f
10:30 15 20 mph 1006.6mb 38f 35f
10:24 16 22 mph 1006.6mb 38f 35f
10:18 17 21 mph 1006.5mb 38f 36f
10:12 18 22 mph 1006.4mb 38f 36f
10:06 18 21 mph 1006.4mb 38f 36f
10:00 17 21 mph 1006.5mb 38f 36f
9:54 16 20 mph 1006.5mb 38f 35f
9:48 15 20 mph 1006.5mb 38f 36f
9:42 15 18 mph 1006.7mb 38f 36f
9:36 15 20 mph 1006.7mb 38f 36f
9:30 14 20 mph 1006.5mb 38f 36f
9:24 13 18 mph 1006.3mb 38f 36f
9:18 15 20 mph 1006mb 38f 36f
9:12 15 20 mph 1005.5mb 38f 35f
9:06 17 23 mph 1005.5mb 38f 35f
9:00 16 22 mph 1005.6mb 38f 35f
8:54 17 22 mph 1005.5mb 38f 35f
8:48 16 20 mph 1005.5mb 38f 35f
8:42 16 20 mph 1005.5mb 38f 35f
8:36 15 21 mph 1005.4mb 38f 35f
8:30 15 18 mph 1005.5mb 38f 35f
8:24 16 22 mph 1005.6mb 38f 36f
8:18 18 22 mph 1005.4mb 38f 36f
8:12 15 20 mph 1005.4mb 38f 36f
8:06 16 22 mph 1005.6mb 38f 37f
8:00 15 21 mph 1005.6mb 38f 37f
7:54 15 21 mph 1005.7mb 38f 37f
7:48 17 21 mph 1005.6mb 38f 37f
7:42 17 21 mph 1005.5mb 38f 37f
7:36 14 17 mph 1005.6mb 38f 37f
7:30 13 16 mph 1005.7mb 38f 37f
7:24 11 16 mph 1005.7mb 38f 37f
7:18 13 16 mph 1005.5mb 38f 37f
7:12 13 17 mph 1005.5mb 38f 37f
7:06 13 16 mph 1005.3mb 38f 38f
7:00 13 16 mph 1005.3mb 38f 38f
6:54 13 15 mph 1005.3mb 38f 38f
6:48 13 15 mph 1005.2mb 38f 37f
6:42 13 17 mph 1005mb 37f 37f
6:36 11 15 mph 1005mb 37f 37f
6:30 10 14 mph 1005mb 37f 37f
6:24 10 14 mph 1005mb 37f 37f
6:18 9 13 mph 1005.1mb 37f 37f
6:12 9 10 mph 1005.2mb 37f 37f
6:06 9 11 mph 1005.3mb 37f 37f
6:00 9 10 mph 1005.2mb 37f 37f
5:54 8 10 mph 1005.2mb 37f 38f
5:48 8 11 mph 1005.2mb 37f 38f
5:42 9 10 mph 1005.2mb 37f 38f
5:36 9 11 mph 1005.2mb 37f 38f
5:30 8 10 mph 1005.2mb 38f 38f
5:24 7 9 mph 1005.2mb 38f 38f
5:18 9 11 mph 1005.2mb 38f 38f
5:12 9 13 mph 1005.2mb 38f 38f
5:06 9 13 mph 1005.3mb 38f 38f
5:00 10 13 mph 1005.2mb 38f 38f
4:54 7 10 mph 1005.3mb 38f 38f
4:48 7 9 mph 1005.2mb 38f 38f
4:42 8 10 mph 1005.2mb 38f 38f
4:36 7 10 mph 1005.4mb 38f 38f
4:30 8 10 mph 1005.5mb 38f 38f
4:24 8 10 mph 1005.3mb 38f 38f
4:18 6 7 mph 1005.5mb 38f 39f
4:12 6 7 mph 1005.6mb 38f 39f
4:06 5 6 mph 1005.6mb 38f 39f
4:00 6
mph
1005.8mb 38f 39f
3:54 5
mph
1006mb 38f 39f
3:48 5
mph
1006mb 38f 39f
3:42 5 6 mph 1005.9mb 38f 39f
3:36 6
mph
1005.7mb 38f 39f
3:30 6 7 mph 1005.9mb 38f 39f
3:24 6 7 mph 1005.9mb 38f 39f
3:18 5 6 mph 1005.7mb 38f 38f
3:12 5 6 mph 1005.8mb 38f 38f
3:06 6
mph
1005.8mb 38f 38f
3:00 6
mph
1005.9mb 38f 39f
2:54 6 7 mph 1006.3mb 38f 38f
2:48 7 8 mph 1006.3mb 38f 38f
2:42 7 8 mph 1006.1mb 38f 38f
2:36 6
mph
1006.2mb 38f 39f
2:30 5
mph
1006.7mb 38f 39f
2:24 5
mph
1006.6mb 38f 39f
2:18 3 6 mph 1006.7mb 38f 39f
2:12 5 6 mph 1006.6mb 38f 38f
2:06 3 5 mph 1006.6mb 38f 39f
2:00 2 5 mph 1006.6mb 38f 40f
1:54 2 3 mph 1006.6mb 38f 40f
1:48 2 5 mph 1006.6mb 38f 40f
1:42 5 6 mph 1006.4mb 38f 40f
1:36 5 6 mph 1006.5mb 38f 40f
1:30 3 5 mph 1006.5mb 38f 39f
1:24 2 3 mph 1006.7mb 38f 39f
1:18 2
mph
1007mb 38f 39f
1:12  -  1 mph 1007mb 38f 39f
1:06  -  mph 1007mb 38f 39f
1:00  -  1 mph 1007.1mb 38f 39f
12:54  -  mph 1007mb 38f 39f
12:48  -  mph 1006.9mb 38f 39f
12:42  -  1 mph 1007mb 38f 39f
12:36  -  1 mph 1007.1mb 38f 40f
12:30  -  1 mph 1006.9mb 38f 40f
12:24 2
mph
1007mb 38f 40f
12:18 1 2 mph 1007.2mb 38f 40f
12:12 2 3 mph 1007mb 38f 40f
12:06 2 3 mph 1006.8mb 38f 40f
12:00 1 2 mph 1006.8mb 38f 39f
Fr 03/27 11:54 2
mph
1007.1mb 38f 39f
11:48 1 2 mph 1007.2mb 38f 40f
11:42 1 2 mph 1007.2mb 38f 40f
11:36 2 3 mph 1007.2mb 38f 40f
11:30 2 3 mph 1007.3mb 38f 40f
11:24 2 3 mph 1007.4mb 38f 39f
11:18 1 2 mph 1007.4mb 38f 40f
11:12 2
mph
1007.4mb 38f 40f
11:06 2
mph
1007.5mb 38f 40f
11:00 1 3 mph 1007.3mb 38f 40f
10:54 2 5 mph 1006.9mb 38f 40f
10:48 3 5 mph 1006.8mb 38f 40f
10:42 3
mph
1006.6mb 38f 40f
10:36 3
mph
1006.8mb 38f 40f
10:30 1 2 mph 1006.9mb 38f 40f
10:24 2 5 mph 1007.5mb 38f 40f
10:18 5
mph
1007.9mb 38f 39f
10:12 5
mph
1007.8mb 38f 39f
10:06 5
mph
1007.7mb 38f 39f
10:00 5
mph
1007.8mb 38f 39f
9:54 5
mph
1007.9mb 38f 39f
9:48 5
mph
1007.9mb 38f 39f
9:42 2 3 mph 1007.4mb 38f 40f
9:36 2
mph
1007.4mb 38f 40f
9:30 1 2 mph 1007.3mb 38f 40f
9:24 2
mph
1007.1mb 38f 40f
9:18  -  1 mph 1007.2mb 38f 40f
9:12  -  1 mph 1007.3mb 38f 40f
9:06 1 2 mph 1007.2mb 38f 40f
9:00 1 2 mph 1007.3mb 38f 40f
8:54 1 2 mph 1007.1mb 38f 40f
8:48 1 2 mph 1007.1mb 38f 40f
8:42 1 2 mph 1007.2mb 38f 40f
8:36 2
mph
1007.4mb 37f 40f
8:30 2 3 mph 1007.7mb 37f 40f
8:24 3 6 mph 1006.9mb 37f 40f
8:18 6
mph
1006.5mb 37f 40f
8:12 5
mph
1006.8mb 37f 40f
8:06 3 5 mph 1006.9mb 37f 40f
8:00 3 5 mph 1006.8mb 37f 40f
7:54 3
mph
1006.4mb 37f 39f
7:48 3 6 mph 1006.6mb 37f 39f
7:42 5 6 mph 1006.1mb 37f 39f
7:36 6
mph
1006.3mb 37f 39f
7:30 6 7 mph 1005.9mb 37f 39f
7:24 7 8 mph 1005.7mb 37f 39f
7:18 6
mph
1005.9mb 37f 39f
7:12 6
mph
1005.8mb 37f 39f
7:06 6 7 mph 1006mb 37f 40f
7:00 7
mph
1005.7mb 37f 40f
6:54 5
mph
1006.3mb 37f 40f
6:48 5 6 mph 1006.5mb 37f 40f
6:42 6
mph
1006.5mb 37f 40f
6:36 3 6 mph 1006.9mb 37f 40f
6:30 6
mph
1006.6mb 37f 40f
6:24 6
mph
1006.8mb 37f 40f
6:18 5
mph
1006.7mb 37f 40f
6:12 6
mph
1006.6mb 37f 40f
6:06 5 6 mph 1006.7mb 37f 40f
6:00 6
mph
1006.4mb 37f 40f
5:54 6
mph
1006.3mb 37f 40f
5:48 6
mph
1006.3mb 37f 40f
5:42 6
mph
1006.1mb 37f 41f
5:36 6 7 mph 1006mb 37f 41f
5:30 7
mph
1005.5mb 37f 41f
5:24 6 8 mph 1005.4mb 37f 42f
5:18 6 7 mph 1005.6mb 37f 42f
5:12 7 8 mph 1005.8mb 37f 42f
5:06 7 9 mph 1005.6mb 37f 42f
5:00 7 9 mph 1005.5mb 37f 42f
4:54 7 8 mph 1005.6mb 37f 42f
4:48 7 8 mph 1005.5mb 37f 42f
4:42 6 8 mph 1005.6mb 37f 42f
4:36 6 7 mph 1005.7mb 37f 42f
4:30 6 7 mph 1005.7mb 37f 42f
4:24 6 8 mph 1005.6mb 37f 42f
4:18 7 8 mph 1005.6mb 37f 41f
4:12 8 10 mph 1005.3mb 37f 41f
4:06 8 9 mph 1005.3mb 37f 41f
4:00 7 9 mph 1005.4mb 37f 41f
3:54 8 9 mph 1005.3mb 37f 41f
3:48 8 11 mph 1005.2mb 37f 42f
3:42 11 13 mph 1005.1mb 37f 42f
3:36 9 13 mph 1005.3mb 37f 42f
3:30 9 11 mph 1005.3mb 37f 42f
3:24 10 11 mph 1005.4mb 37f 42f
3:18 10 11 mph 1005.3mb 37f 41f
3:12 7 9 mph 1005.3mb 37f 41f
3:06 8 10 mph 1005.3mb 37f 41f
3:00 8 10 mph 1005.1mb 37f 41f
2:54 8 11 mph 1005mb 37f 41f
2:48 9 11 mph 1005.1mb 37f 41f
2:42 9 10 mph 1005.1mb 37f 41f
2:36 8 10 mph 1005.1mb 37f 41f
2:30 8 11 mph 1005.2mb 37f 41f
2:24 10 13 mph 1005.2mb 37f 41f
2:18 10 13 mph 1005.2mb 37f 42f
2:12 9 13 mph 1005.1mb 37f 41f
2:06 11 14 mph 1005mb 37f 41f
2:00 8 10 mph 1005.3mb 37f 42f
1:54 8 10 mph 1005.4mb 37f 42f
1:48 8 11 mph 1005.4mb 37f 42f
1:42 8 10 mph 1005.2mb 37f 42f
1:36 9 11 mph 1005.3mb 37f 42f
1:30 9 11 mph 1005.4mb 37f 42f
1:24 8 13 mph 1005.4mb 37f 42f
1:18 10 13 mph 1005.2mb 37f 42f
1:12 9 13 mph 1005.4mb 37f 42f
1:06 10 13 mph 1005.2mb 37f 42f
1:00 10 14 mph 1004.9mb 37f 42f
12:54 10 14 mph 1004.8mb 37f 42f
12:48 9 11 mph 1004.8mb 37f 42f
12:42 9 11 mph 1005mb 37f 41f
12:36 9 11 mph 1005.1mb 37f 42f
12:30 11 13 mph 1005mb 37f 41f
12:24 10 13 mph 1004.9mb 37f 41f
12:18 9 13 mph 1005.2mb 37f 41f
12:12 9 11 mph 1005.4mb 37f 41f
12:06 9 11 mph 1005.3mb 37f 41f